DW4230 Weather Reports


time (UTC)temp
F
wind
direction
speed
knots
gust
knots
rain 1hr
in
rain 24hr
in
rain mn
in
humidity
%
barometer
mb
20260906233110 63 31 0.0 0.9 0.00 0.00 0.00 81 1013.6
20260906231551 64 31 0.0 0.0 0.00 0.00 0.00 82 1013.5
20260906230013 64 31 0.0 0.0 0.00 0.00 0.00 81 1013.4
20260906224551 66 31 0.0 0.0 0.00 0.00 0.00 79 1013.3
20260906223010 67 31 0.0 0.0 0.00 0.00 0.00 74 1013.2
20260906221546 68 30 0.0 0.0 0.00 0.00 0.00 71 1013.2
20260906220004 68 30 0.0 0.0 0.00 0.00 0.00 72 1013.2
20260906214547 67 30 0.0 2.6 0.00 0.00 0.00 74 1013.3
20260906213021 67 30 0.0 1.7 0.00 0.00 0.00 73 1013.3
20260906211553 67 30 1.7 3.5 0.00 0.00 0.00 71 1013.1
20260906210019 67 19 1.7 7.8 0.00 0.00 0.00 73 1012.9
20260906204551 67 6 0.0 4.3 0.00 0.00 0.00 74 1012.8
20260906203011 67 6 0.0 3.5 0.00 0.00 0.00 71 1012.7
20260906201615 67 14 0.0 4.3 0.00 0.00 0.00 74 1012.9
20260906200024 66 41 2.6 7.8 0.00 0.00 0.00 74 1012.8
20260906194609 67 29 3.5 9.6 0.00 0.00 0.00 73 1012.8
20260906193042 67 16 0.9 6.1 0.00 0.00 0.00 73 1012.7
20260906191508 67 18 1.7 7.0 0.00 0.00 0.00 73 1012.7
20260906190050 67 39 1.7 8.7 0.00 0.00 0.00 71 1012.7
20260906184519 67 28 2.6 7.0 0.00 0.00 0.00 74 1012.6
20260906183102 68 60 4.3 10.4 0.00 0.00 0.00 73 1012.6
20260906181537 67 61 5.2 10.4 0.00 0.00 0.00 73 1012.7
20260906180056 66 60 6.1 10.4 0.00 0.00 0.00 74 1012.9
20260906174516 67 89 5.2 9.6 0.00 0.00 0.00 72 1012.9
20260906173041 68 62 2.6 8.7 0.00 0.00 0.00 70 1012.9
20260906171509 67 18 2.6 10.4 0.00 0.00 0.00 71 1013.0
20260906170051 68 29 6.1 13.0 0.00 0.00 0.00 68 1013.0
20260906164515 67 91 6.1 10.4 0.00 0.00 0.00 70 1013.0
20260906151541 67 53 5.2 14.8 0.00 0.00 0.00 74 1013.2
20260906150010 66 33 5.2 10.4 0.00 0.00 0.00 78 1013.2
20260906144539 65 5 5.2 11.3 0.00 0.00 0.00 81 1013.3
20260906143001 65 8 5.2 11.3 0.00 0.00 0.00 82 1013.3
20260906141532 65 11 6.1 13.0 0.00 0.00 0.00 79 1013.3
20260906140011 65 19 2.6 11.3 0.00 0.00 0.00 82 1013.4
20260906134552 65 16 4.3 9.6 0.00 0.00 0.00 82 1013.4
20260906133017 65 19 4.3 11.3 0.00 0.00 0.00 82 1013.3
20260906131555 64 35 4.3 8.7 0.00 0.00 0.00 82 1013.3
20260906130028 63 24 3.5 7.0 0.00 0.00 0.00 84 1013.3
20260906124606 63 39 3.5 7.8 0.00 0.00 0.00 85 1013.1
20260906123036 62 16 3.5 7.8 0.00 0.00 0.00 87 1013.1
20260906121600 62 44 4.3 7.8 0.00 0.00 0.00 87 1013.1
20260906120012 62 60 5.2 9.6 0.00 0.00 0.00 87 1012.9
20260906114608 62 73 4.3 7.8 0.00 0.00 0.00 87 1012.7
20260906113019 61 33 5.2 9.6 0.00 0.00 0.00 88 1012.5
20260906111620 62 33 4.3 8.7 0.00 0.00 0.00 88 1012.4
20260906110023 62 36 3.5 7.8 0.00 0.00 0.00 87 1012.4
20260906104612 62 43 4.3 13.0 0.00 0.00 0.00 87 1012.2
20260906103152 62 53 3.5 9.6 0.00 0.00 0.00 89 1012.0
20260906101507 62 23 5.2 9.6 0.00 0.00 0.00 89 1011.7
20260906100044 62 75 3.5 11.3 0.00 0.00 0.00 90 1011.6
20260906094509 62 41 3.5 8.7 0.00 0.00 0.00 89 1011.4
20260906093049 62 35 3.5 8.7 0.00 0.00 0.00 89 1011.2
20260906091509 62 43 3.5 7.8 0.00 0.00 0.00 89 1011.0
20260906090104 62 81 3.5 7.8 0.00 0.00 0.00 89 1011.0
20260906084519 62 63 3.5 7.0 0.00 0.00 0.00 89 1010.8
20260906083056 62 79 2.6 8.7 0.00 0.00 0.00 89 1010.8
20260906081542 62 30 4.3 11.3 0.00 0.00 0.00 89 1010.6
20260906080104 63 25 5.2 10.4 0.00 0.00 0.00 89 1010.5
20260906074535 63 27 3.5 10.4 0.00 0.00 0.00 89 1010.6
20260906073111 63 23 3.5 8.7 0.00 0.00 0.00 89 1010.5
20260906071527 63 53 3.5 11.3 0.00 0.00 0.00 89 1010.5
20260906070137 63 44 6.1 12.2 0.00 0.00 0.00 88 1010.6
20260906064527 63 56 5.2 11.3 0.00 0.00 0.00 89 1010.6
20260906063057 63 37 4.3 9.6 0.00 0.00 0.00 88 1010.5
20260906061526 63 19 2.6 7.8 0.00 0.00 0.00 88 1010.6
20260906054527 63 21 2.6 7.0 0.00 0.00 0.00 89 1010.8
20260906053059 63 23 1.7 7.0 0.00 0.00 0.00 88 1010.9
20260906051526 63 21 3.5 7.0 0.00 0.00 0.00 88 1011.1
20260906050116 63 360 4.3 7.0 0.00 0.00 0.00 89 1011.0
20260906044539 63 18 3.5 7.0 0.00 0.00 0.00 89 1010.9
20260906043112 63 349 1.7 6.1 0.00 0.00 0.00 89 1010.8
20260906041542 63 21 0.9 6.1 0.00 0.00 0.00 89 1010.7
20260906040009 63 358 1.7 6.1 0.00 0.00 0.00 88 1010.7
20260906034553 63 8 1.7 5.2 0.00 0.00 0.00 88 1010.8
20260906024536 64 6 1.7 5.2 0.00 0.00 0.00 87 1010.7
20260906023131 64 2 2.6 7.0 0.00 0.00 0.00 87 1010.7
20260906021524 64 19 0.9 4.3 0.00 0.00 0.00 87 1010.7
20260906020107 64 42 1.7 7.0 0.00 0.00 0.00 87 1010.6
20260906014543 64 25 0.9 6.1 0.00 0.00 0.00 87 1010.7
20260906013004 64 46 1.7 6.1 0.00 0.00 0.00 87 1010.7
20260906011552 64 51 0.0 5.2 0.00 0.00 0.00 87 1010.7
20260906010009 63 58 1.7 5.2 0.00 0.00 0.00 87 1010.6
20260906004600 63 58 0.9 5.2 0.00 0.00 0.00 86 1010.5
20260906003012 64 52 1.7 7.0 0.00 0.00 0.00 86 1010.4
20260906001550 64 31 2.6 5.2 0.00 0.00 0.00 86 1010.1
20260906000017 64 45 1.7 4.3 0.00 0.00 0.00 86 1010.0
20260905234556 64 66 0.9 4.3 0.00 0.00 0.00 85 1010.0